When you browse on this site, cookies collect data to enhance your experience and personalize the content and advertising you see.
Visit our Privacy Policy to learn more. By continuing to use the site, you agree to this use of cookies and data.
  • In Netherlands
  • List of Countries
  • For 7 days
  • Water Temperature
  • Satellite Maps
  • Weather Map
  • Weather Widgets
  • user-avatar
    Login

    Hourly Weather Kurytyba

    Today, 20 May, Monday

    Time Temperature Precipitation Wind Pressure Humidity
    00:00 +14°C° 0 mm 0 mps 682 mmHg 97%
    01:00 +13°C° 0 mm 0 mps 682 mmHg 97%
    02:00 +13°C° 0 mm 0 mps 682 mmHg 97%
    03:00 +13°C° 0 mm 0 mps 681 mmHg 97%
    04:00 +13°C° 0 mm 0 mps 681 mmHg 97%
    05:00 +13°C° 0 mm 0 mps 681 mmHg 97%
    06:00 +14°C° 0 mm 1 mps 681 mmHg 98%
    07:00 +14°C° 0 mm 0 mps 682 mmHg 94%
    08:00 +15°C° 0 mm 0 mps 682 mmHg 90%
    09:00 +17°C° 0 mm 0 mps 683 mmHg 84%
    10:00 +19°C° 0 mm 0 mps 683 mmHg 75%
    11:00 +21°C° 0 mm 0 mps 683 mmHg 66%
    12:00 +23°C° 0 mm 0 mps 684 mmHg 57%
    13:00 +23°C° 0 mm 0 mps 683 mmHg 58%
    14:00 +23°C° 0 mm 0 mps 683 mmHg 59%
    15:00 +22°C° 0 mm 0 mps 682 mmHg 60%
    16:00 +21°C° 0 mm 0 mps 682 mmHg 68%
    17:00 +19°C° 0 mm 0 mps 682 mmHg 76%
    18:00 +17°C° 0 mm 0 mps 681 mmHg 84%
    19:00 +17°C° 0 mm 0 mps 682 mmHg 87%
    20:00 +16°C° 0 mm 0 mps 682 mmHg 90%
    21:00 +18°C° 0 mm 1 mps 682 mmHg 93%
    22:00 +16°C° 0 mm 1 mps 682 mmHg 94%
    23:00 +16°C° 0 mm 1 mps 682 mmHg 94%

    Tomorrow, 21 May, Tuesday

    Time Temperature Precipitation Wind Pressure Humidity
    00:00 +16°C° 0 mm 1 mps 682 mmHg 95%
    01:00 +16°C° 0 mm 1 mps 682 mmHg 96%
    02:00 +15°C° 0 mm 1 mps 681 mmHg 96%
    03:00 +15°C° 0 mm 1 mps 681 mmHg 96%
    04:00 +15°C° 0 mm 1 mps 681 mmHg 97%
    05:00 +15°C° 0 mm 1 mps 681 mmHg 97%
    06:00 +15°C° 0 mm 1 mps 681 mmHg 97%
    07:00 +16°C° 0 mm 1 mps 681 mmHg 93%
    08:00 +18°C° 0 mm 1 mps 682 mmHg 89%
    09:00 +19°C° 0 mm 1 mps 682 mmHg 85%
    10:00 +20°C° 0 mm 2 mps 682 mmHg 75%
    11:00 +23°C° 0 mm 2 mps 683 mmHg 66%
    12:00 +25°C° 0 mm 2 mps 683 mmHg 57%
    13:00 +25°C° 0 mm 2 mps 683 mmHg 56%
    14:00 +26°C° 0 mm 2 mps 682 mmHg 55%
    15:00 +26°C° 0 mm 2 mps 682 mmHg 55%
    16:00 +24°C° 0 mm 2 mps 681 mmHg 63%
    17:00 +22°C° 0 mm 1 mps 681 mmHg 72%
    18:00 +21°C° 0 mm 1 mps 681 mmHg 80%
    19:00 +20°C° 0 mm 1 mps 681 mmHg 83%
    20:00 +19°C° 0 mm 1 mps 682 mmHg 85%
    21:00 +19°C° 0 mm 1 mps 682 mmHg 88%
    22:00 +18°C° 0 mm 1 mps 682 mmHg 88%
    23:00 +18°C° 0 mm 1 mps 682 mmHg 89%

    Day after tomorrow, 22 May, Wednesday

    Time Temperature Precipitation Wind Pressure Humidity
    00:00 +18°C° 0 mm 1 mps 682 mmHg 90%
    01:00 +16°C° 0 mm 1 mps 681 mmHg 91%
    02:00 +16°C° 0 mm 1 mps 681 mmHg 92%
    03:00 +15°C° 0 mm 1 mps 681 mmHg 93%
    04:00 +15°C° 0 mm 1 mps 681 mmHg 93%
    05:00 +14°C° 0 mm 0 mps 681 mmHg 93%
    06:00 +14°C° 0 mm 0 mps 681 mmHg 93%
    07:00 +15°C° 0 mm 0 mps 681 mmHg 87%
    08:00 +17°C° 0 mm 0 mps 682 mmHg 81%
    09:00 +18°C° 0 mm 0 mps 683 mmHg 74%
    10:00 +20°C° 0 mm 0 mps 683 mmHg 67%
    11:00 +22°C° 0 mm 0 mps 683 mmHg 59%
    12:00 +26°C° 0 mm 1 mps 684 mmHg 51%
    13:00 +25°C° 0 mm 1 mps 683 mmHg 52%
    14:00 +25°C° 0 mm 1 mps 683 mmHg 52%
    15:00 +25°C° 0 mm 2 mps 682 mmHg 53%
    16:00 +23°C° 0.1 mm 2 mps 682 mmHg 63%
    17:00 +20°C° 0.1 mm 2 mps 682 mmHg 74%
    18:00 +19°C° 0.1 mm 2 mps 681 mmHg 84%
    19:00 +18°C° 0.2 mm 2 mps 682 mmHg 88%
    20:00 +18°C° 0.2 mm 2 mps 682 mmHg 92%
    21:00 +17°C° 0.2 mm 2 mps 682 mmHg 95%
    22:00 +17°C° 0.2 mm 2 mps 682 mmHg 96%
    23:00 +17°C° 0.2 mm 2 mps 682 mmHg 96%

    23 May, Thursday

    Time Temperature Precipitation Wind Pressure Humidity
    00:00 +18°C° 0.2 mm 1 mps 682 mmHg 97%
    01:00 +18°C° 0 mm 1 mps 681 mmHg 97%
    02:00 +18°C° 0 mm 1 mps 681 mmHg 97%
    03:00 +18°C° 0 mm 1 mps 680 mmHg 97%
    04:00 +18°C° 0 mm 1 mps 680 mmHg 96%
    05:00 +18°C° 0 mm 1 mps 680 mmHg 96%
    06:00 +16°C° 0 mm 1 mps 680 mmHg 95%
    07:00 +17°C° 0.2 mm 2 mps 680 mmHg 95%
    08:00 +17°C° 0.2 mm 2 mps 680 mmHg 94%
    09:00 +17°C° 0.2 mm 2 mps 680 mmHg 93%
    10:00 +17°C° 0.3 mm 2 mps 680 mmHg 92%
    11:00 +18°C° 0.3 mm 3 mps 680 mmHg 90%
    12:00 +18°C° 0.3 mm 3 mps 680 mmHg 89%
    13:00 +18°C° 0.8 mm 3 mps 679 mmHg 90%
    14:00 +18°C° 0.8 mm 3 mps 678 mmHg 91%
    15:00 +17°C° 0.8 mm 3 mps 677 mmHg 93%
    16:00 +17°C° 0.9 mm 3 mps 677 mmHg 94%
    17:00 +17°C° 0.9 mm 2 mps 677 mmHg 95%
    18:00 +17°C° 0.9 mm 2 mps 677 mmHg 96%
    19:00 +16°C° 2.6 mm 2 mps 677 mmHg 95%
    20:00 +16°C° 2.6 mm 2 mps 678 mmHg 95%
    21:00 +15°C° 2.6 mm 2 mps 678 mmHg 94%
    22:00 +15°C° 0 mm 2 mps 678 mmHg 94%
    23:00 +14°C° 0 mm 2 mps 677 mmHg 94%

    24 May, Friday

    Time Temperature Precipitation Wind Pressure Humidity
    00:00 +14°C° 0 mm 2 mps 677 mmHg 95%
    01:00 +14°C° 0 mm 2 mps 677 mmHg 94%
    02:00 +13°C° 0 mm 2 mps 676 mmHg 94%
    03:00 +13°C° 0 mm 2 mps 676 mmHg 93%
    04:00 +12°C° 0 mm 3 mps 676 mmHg 92%
    05:00 +11°C° 0 mm 3 mps 676 mmHg 91%
    06:00 +11°C° 0 mm 3 mps 676 mmHg 89%
    07:00 +11°C° 0 mm 3 mps 676 mmHg 87%
    08:00 +11°C° 0 mm 4 mps 677 mmHg 84%
    09:00 +11°C° 0 mm 4 mps 677 mmHg 81%
    10:00 +11°C° 0.1 mm 4 mps 677 mmHg 78%
    11:00 +11°C° 0.1 mm 4 mps 677 mmHg 74%
    12:00 +9°C° 0.1 mm 5 mps 677 mmHg 71%
    13:00 +10°C° 0.1 mm 5 mps 677 mmHg 64%
    14:00 +12°C° 0.1 mm 5 mps 676 mmHg 58%
    15:00 +13°C° 0.1 mm 5 mps 676 mmHg 51%
    16:00 +12°C° 0 mm 5 mps 676 mmHg 55%
    17:00 +10°C° 0 mm 5 mps 677 mmHg 59%
    18:00 +10°C° 0 mm 4 mps 677 mmHg 63%
    19:00 +10°C° 0 mm 4 mps 677 mmHg 67%
    20:00 +8°C° 0 mm 4 mps 678 mmHg 71%
    21:00 +8°C° 0 mm 4 mps 678 mmHg 75%
    22:00 +8°C° 0 mm 3 mps 678 mmHg 78%
    23:00 +8°C° 0 mm 3 mps 678 mmHg 80%

    25 May, Saturday

    Time Temperature Precipitation Wind Pressure Humidity
    00:00 +8°C° 0 mm 3 mps 679 mmHg 83%
    01:00 +8°C° 0 mm 3 mps 679 mmHg 85%
    02:00 +8°C° 0 mm 3 mps 679 mmHg 87%
    03:00 +7°C° 0 mm 2 mps 679 mmHg 89%
    04:00 +7°C° 0 mm 2 mps 679 mmHg 90%
    05:00 +7°C° 0 mm 2 mps 679 mmHg 92%
    06:00 +7°C° 0 mm 2 mps 679 mmHg 93%
    07:00 +9°C° 0 mm 1 mps 680 mmHg 87%
    08:00 +10°C° 0 mm 1 mps 681 mmHg 81%
    09:00 +11°C° 0 mm 1 mps 681 mmHg 75%
    10:00 +14°C° 0 mm 1 mps 682 mmHg 66%
    11:00 +16°C° 0 mm 1 mps 682 mmHg 58%
    12:00 +18°C° 0 mm 0 mps 682 mmHg 49%
    13:00 +18°C° 0 mm 0 mps 682 mmHg 49%
    14:00 +21°C° 0 mm 1 mps 681 mmHg 48%
    15:00 +21°C° 0 mm 1 mps 681 mmHg 47%
    16:00 +19°C° 0 mm 1 mps 681 mmHg 56%
    17:00 +15°C° 0 mm 0 mps 681 mmHg 66%
    18:00 +13°C° 0 mm 0 mps 681 mmHg 75%
    19:00 +12°C° 0 mm 0 mps 681 mmHg 78%
    20:00 +11°C° 0 mm 0 mps 681 mmHg 82%
    21:00 +10°C° 0 mm 0 mps 682 mmHg 86%
    22:00 +11°C° 0 mm 1 mps 682 mmHg 88%
    23:00 +11°C° 0 mm 1 mps 681 mmHg 89%
    Show more